Lid_Strength_Index
2 1 1 2 2 1 1 1 1 1 1 1 1 1 1 1 2 6 9 7 4 1 0 5 5 4 3 5 4 5 12 14 12 12 11 7 8 6 5 7 6 5 5 4 2
1 1 1 1 1 1 1 1 1 1 1 1 1 1 1 1 5 8 5 2 1 2 5 6 7 6 7 6 6 9 12 12 8 8 9 7 8 7 8 8 8 7 5 3 3
2 1 1 1 1 1 1 1 1 1 1 1 1 1 1 3 11 12 3 1 2 3 5 4 5 6 8 6 7 8 12 9 8 7 7 8 8 6 8 9 7 8 6 4 4
1 1 1 1 1 1 1 1 1 1 1 1 1 1 1 6 16 9 3 3 3 5 6 6 7 9 9 10 7 10 8 8 8 7 7 8 7 8 7 7 5 4 4 4 5
1 1 1 1 1 1 1 1 1 1 1 1 1 1 5 10 10 6 3 4 6 6 7 6 8 8 11 10 10 11 9 7 6 7 7 7 8 8 8 5 4 4 5 5 5
1 1 1 1 1 1 1 1 1 1 1 0 1 2 7 12 6 5 5 4 4 3 4 4 5 5 8 9 10 9 10 9 8 7 7 9 8 8 7 5 5 5 5 5 5
1 2 2 2 2 2 1 1 1 1 1 0 1 3 7 9 6 4 3 3 2 2 4 3 3 5 6 9 7 8 11 11 10 8 9 8 11 10 6 6 6 6 6 5 5
2 2 2 2 2 2 2 1 1 1 0 0 1 4 9 5 4 2 1 2 2 2 2 2 2 4 6 6 8 10 11 14 10 9 8 9 14 8 6 7 7 7 6 6 5
2 2 2 2 2 2 2 1 0 0 0 0 4 5 10 3 5 2 1 3 3 3 3 1 3 6 7 10 12 11 16 15 12 8 9 10 12 8 6 7 7 7 7 6 5
2 2 1 2 2 2 2 2 2 2 4 3 5 10 8 9 5 3 2 2 5 5 5 5 7 10 10 12 17 15 15 13 13 10 9 11 12 9 7 7 8 7 7 6 6
2 2 2 2 2 2 5 8 10 11 8 11 11 10 8 5 3 4 3 4 4 6 10 8 11 13 11 10 10 11 13 14 11 9 11 12 11 10 8 8 8 8 7 7 6
3 2 2 2 2 3 6 9 8 8 11 7 7 7 5 4 7 5 3 7 8 11 9 11 13 9 8 9 11 12 13 14 11 9 10 12 12 10 9 8 8 8 7 7 6
3 2 2 2 3 6 7 8 5 6 11 10 8 8 6 5 7 7 4 6 9 11 11 13 11 8 9 11 12 12 14 13 14 11 10 12 14 12 9 8 7 7 6 6 6
3 3 3 2 6 7 8 5 5 6 18 14 11 8 5 6 9 4 4 6 8 11 10 11 9 10 11 12 11 15 10 11 12 14 17 12 19 14 11 10 9 8 7 7 6
3 3 3 3 7 8 6 5 6 9 26 13 11 5 6 9 9 8 4 6 10 10 10 12 11 12 13 12 10 13 9 11 12 14 14 14 18 14 11 12 10 8 7 7 6
3 3 4 6 7 7 6 7 9 19 27 14 11 10 10 10 8 7 7 5 6 10 10 11 8 9 10 9 9 9 11 12 13 14 19 15 17 16 14 12 10 8 7 7 6
3 3 5 6 9 6 7 10 19 24 15 16 13 10 11 12 11 10 11 11 12 15 16 13 12 10 9 12 10 11 13 19 20 20 20 14 16 15 11 10 9 9 8 7 6
4 5 5 6 6 7 10 15 24 24 20 13 12 12 14 13 12 12 12 13 10 11 15 18 19 12 10 12 13 13 13 18 22 22 20 15 19 15 10 9 8 8 7 7 7
6 9 8 7 6 9 13 24 22 20 13 13 14 19 19 14 13 14 14 14 11 11 17 19 17 11 12 11 11 13 16 13 17 16 19 18 15 12 10 10 9 9 8 8 7
11 10 9 8 8 11 17 19 20 12 11 13 20 16 18 17 16 16 15 12 12 11 12 15 19 13 11 12 11 12 10 17 16 22 23 19 18 17 13 12 10 10 9 8 7
12 14 9 9 10 15 22 24 16 11 11 15 18 14 16 17 14 16 15 12 11 12 12 14 15 16 13 14 15 14 15 14 14 17 21 22 19 12 12 11 11 9 8 8 7
13 18 9 10 17 22 24 19 11 11 11 11 12 13 15 16 16 15 15 13 10 12 15 14 16 17 16 13 12 12 14 14 18 19 17 18 18 10 10 10 10 9 8 8 9
14 14 10 11 22 23 19 16 13 12 11 11 12 11 13 16 16 17 13 11 11 12 15 14 16 19 18 14 12 14 13 13 13 15 18 20 18 11 10 10 9 11 11 12 13
16 19 17 16 17 16 16 20 19 12 12 10 11 11 13 19 15 16 14 11 11 11 11 13 15 17 20 18 14 15 14 13 14 18 17 17 16 14 13 13 12 12 12 13 13
16 19 18 23 21 16 17 16 17 16 12 11 14 16 14 17 19 21 14 13 12 11 13 15 19 17 16 15 15 14 15 14 15 15 17 16 17 16 14 13 13 13 13 14 14
17 18 14 23 16 16 15 17 15 14 14 15 14 15 13 16 16 16 14 14 14 13 15 15 19 18 18 15 16 16 16 15 14 15 15 16 16 13 13 12 13 13 13 14 14
14 13 14 19 18 19 18 16 14 14 13 12 14 15 19 17 12 11 11 12 13 14 16 16 17 19 21 17 17 19 18 16 15 16 15 18 16 14 15 15 14 13 13 14 14